Year,Month,Day,Hour,Minute,Value (Times are PST for temperature in C)
2012,08,19,13,24,18.80
2012,08,19,13,25,18.80
2012,08,19,13,26,18.80
2012,08,19,13,27,18.80
2012,08,19,13,28,18.90
2012,08,19,13,29,18.90
2012,08,19,13,30,18.90
2012,08,19,13,31,18.90
2012,08,19,13,32,19.00
2012,08,19,13,33,19.00
2012,08,19,13,34,19.00
2012,08,19,13,35,19.10
2012,08,19,13,36,19.20
2012,08,19,13,37,19.20
2012,08,19,13,38,19.20
2012,08,19,13,39,19.30
2012,08,19,13,40,19.30
2012,08,19,13,41,19.30
2012,08,19,13,42,19.30
2012,08,19,13,43,19.30
2012,08,19,13,44,19.40
2012,08,19,13,45,19.40
2012,08,19,13,46,19.30
2012,08,19,13,47,19.30
2012,08,19,13,48,19.20
2012,08,19,13,49,19.20
2012,08,19,13,50,19.20
2012,08,19,13,51,19.10
2012,08,19,13,52,19.10
2012,08,19,13,53,19.10
2012,08,19,13,54,19.10
2012,08,19,13,55,19.10
2012,08,19,13,56,19.10
2012,08,19,13,57,19.10
2012,08,19,13,58,19.10
2012,08,19,13,59,19.20
2012,08,19,14,00,19.20
2012,08,19,14,01,19.20
2012,08,19,14,02,19.20
2012,08,19,14,03,19.20
2012,08,19,14,04,19.20
2012,08,19,14,05,19.20
2012,08,19,14,06,19.20
2012,08,19,14,07,19.20
2012,08,19,14,08,19.20
2012,08,19,14,09,19.20
2012,08,19,14,10,19.20
2012,08,19,14,11,19.20
2012,08,19,14,12,19.20
2012,08,19,14,13,19.30
2012,08,19,14,14,19.30
2012,08,19,14,15,19.30
2012,08,19,14,16,19.30
2012,08,19,14,17,19.30
2012,08,19,14,18,19.30
2012,08,19,14,19,19.40
2012,08,19,14,20,19.40
2012,08,19,14,21,19.40
2012,08,19,14,22,19.40
2012,08,19,14,23,19.40
2012,08,19,14,24,19.50
2012,08,19,14,25,19.50
2012,08,19,14,26,19.50
2012,08,19,14,27,19.50
2012,08,19,14,28,19.40
2012,08,19,14,29,19.40
2012,08,19,14,30,19.50
2012,08,19,14,31,19.50
2012,08,19,14,32,19.50
2012,08,19,14,33,19.50
2012,08,19,14,34,19.50
2012,08,19,14,35,19.60
2012,08,19,14,36,19.60
2012,08,19,14,37,19.60
2012,08,19,14,38,19.60
2012,08,19,14,39,19.60
2012,08,19,14,40,19.70
2012,08,19,14,41,19.70
2012,08,19,14,42,19.80
2012,08,19,14,43,19.80
2012,08,19,14,44,19.90
2012,08,19,14,45,20.00
2012,08,19,14,46,20.00
2012,08,19,14,47,20.10
2012,08,19,14,48,20.10
2012,08,19,14,49,20.10
2012,08,19,14,50,20.10
2012,08,19,14,51,20.00
2012,08,19,14,52,20.00
2012,08,19,14,53,20.00
2012,08,19,14,54,20.00
2012,08,19,14,55,20.10
2012,08,19,14,56,20.10
2012,08,19,14,57,20.10
2012,08,19,14,58,20.20
2012,08,19,14,59,20.20
2012,08,19,15,00,20.30
2012,08,19,15,01,20.30
2012,08,19,15,02,20.40
2012,08,19,15,03,20.40
2012,08,19,15,04,20.50
2012,08,19,15,05,20.50
2012,08,19,15,06,20.60
2012,08,19,15,07,20.60
2012,08,19,15,08,20.60
2012,08,19,15,09,20.60
2012,08,19,15,10,20.70
2012,08,19,15,11,20.70
2012,08,19,15,12,20.80
2012,08,19,15,13,20.80
2012,08,19,15,14,20.90
2012,08,19,15,15,20.90
2012,08,19,15,16,21.00
2012,08,19,15,17,21.00
2012,08,19,15,18,21.00
2012,08,19,15,19,21.10
2012,08,19,15,20,21.10
2012,08,19,15,21,21.10
2012,08,19,15,22,21.10
2012,08,19,15,23,21.10
2012,08,19,15,24,21.20
2012,08,19,15,25,21.20
2012,08,19,15,26,21.20
2012,08,19,15,27,21.20
2012,08,19,15,28,21.20
2012,08,19,15,29,21.20
2012,08,19,15,30,21.20
2012,08,19,15,31,21.20
2012,08,19,15,32,21.20
2012,08,19,15,33,21.20
2012,08,19,15,34,21.20
2012,08,19,15,35,21.20
2012,08,19,15,36,21.30
2012,08,19,15,37,21.30
2012,08,19,15,38,21.30
2012,08,19,15,39,21.30
2012,08,19,15,40,21.30
2012,08,19,15,41,21.30
2012,08,19,15,42,21.30
2012,08,19,15,43,21.30
2012,08,19,15,44,21.30
2012,08,19,15,45,21.40
2012,08,19,15,46,21.40
2012,08,19,15,47,21.40
2012,08,19,15,48,21.40
2012,08,19,15,49,21.40
2012,08,19,15,50,21.40
2012,08,19,15,51,21.50
2012,08,19,15,52,21.50
2012,08,19,15,53,21.50
2012,08,19,15,54,21.50
2012,08,19,15,55,21.50
2012,08,19,15,56,21.50
2012,08,19,15,57,21.50
2012,08,19,15,58,21.40
2012,08,19,15,59,21.40
2012,08,19,16,00,21.40
2012,08,19,16,01,21.50
2012,08,19,16,02,21.50
2012,08,19,16,03,21.60
2012,08,19,16,04,21.60
2012,08,19,16,05,21.70
2012,08,19,16,06,21.70
2012,08,19,16,07,21.70
2012,08,19,16,08,21.70
2012,08,19,16,09,21.70
2012,08,19,16,10,21.80
2012,08,19,16,11,21.80
2012,08,19,16,12,21.80
2012,08,19,16,13,21.80
2012,08,19,16,14,21.80
2012,08,19,16,15,21.90
2012,08,19,16,16,21.90
2012,08,19,16,17,21.90
2012,08,19,16,18,22.00
2012,08,19,16,19,22.00
2012,08,19,16,20,22.10
2012,08,19,16,21,22.10
2012,08,19,16,22,22.20
2012,08,19,16,23,22.30
2012,08,19,16,24,22.30
2012,08,19,16,25,22.30
2012,08,19,16,26,22.30
2012,08,19,16,27,22.20
2012,08,19,16,28,22.10
2012,08,19,16,29,22.10
2012,08,19,16,30,22.00
2012,08,19,16,31,21.90
2012,08,19,16,32,21.80
2012,08,19,16,33,21.70
2012,08,19,16,34,21.70
2012,08,19,16,35,21.70
2012,08,19,16,36,21.70
2012,08,19,16,37,21.60
2012,08,19,16,38,21.60
2012,08,19,16,39,21.60
2012,08,19,16,40,21.60
2012,08,19,16,41,21.50
2012,08,19,16,42,21.40
2012,08,19,16,43,21.40
2012,08,19,16,44,21.40
2012,08,19,16,45,21.40
2012,08,19,16,46,21.40
2012,08,19,16,47,21.40
2012,08,19,16,48,21.40
2012,08,19,16,49,21.40
2012,08,19,16,50,21.40
2012,08,19,16,51,21.40
2012,08,19,16,52,21.50
2012,08,19,16,53,21.50
2012,08,19,16,54,21.50
2012,08,19,16,55,21.50
2012,08,19,16,56,21.50
2012,08,19,16,57,21.50
2012,08,19,16,58,21.50
2012,08,19,16,59,21.40
2012,08,19,17,00,21.40
2012,08,19,17,01,21.40
2012,08,19,17,02,21.40
2012,08,19,17,03,21.40
2012,08,19,17,04,21.40
2012,08,19,17,05,21.40
2012,08,19,17,06,21.40
2012,08,19,17,07,21.30
2012,08,19,17,08,21.30
2012,08,19,17,09,21.20
2012,08,19,17,10,21.20
2012,08,19,17,11,21.10
2012,08,19,17,12,21.10
2012,08,19,17,13,21.00
2012,08,19,17,14,21.00
2012,08,19,17,15,21.00
2012,08,19,17,16,20.90
2012,08,19,17,17,21.00
2012,08,19,17,18,21.00
2012,08,19,17,19,20.90
2012,08,19,17,20,20.90
2012,08,19,17,21,20.90
2012,08,19,17,22,20.90
2012,08,19,17,23,20.80
2012,08,19,17,24,20.80
2012,08,19,17,25,20.80
2012,08,19,17,26,20.80
2012,08,19,17,27,20.70
2012,08,19,17,28,20.70
2012,08,19,17,29,20.70
2012,08,19,17,30,20.60
2012,08,19,17,31,20.60
2012,08,19,17,32,20.60
2012,08,19,17,33,20.60
2012,08,19,17,34,20.60
2012,08,19,17,35,20.50
2012,08,19,17,36,20.50
2012,08,19,17,37,20.40
2012,08,19,17,38,20.40
2012,08,19,17,39,20.40
2012,08,19,17,40,20.40
2012,08,19,17,41,20.40
2012,08,19,17,42,20.40
2012,08,19,17,43,20.40
2012,08,19,17,44,20.40
2012,08,19,17,45,20.40
2012,08,19,17,46,20.50
2012,08,19,17,47,20.50
2012,08,19,17,48,20.60
2012,08,19,17,49,20.60
2012,08,19,17,50,20.60
2012,08,19,17,51,20.70
2012,08,19,17,52,20.70
2012,08,19,17,53,20.70
2012,08,19,17,54,20.70
2012,08,19,17,55,20.70
2012,08,19,17,56,20.70
2012,08,19,17,57,20.70
2012,08,19,17,58,20.70
2012,08,19,17,59,20.80
2012,08,19,18,00,20.80
2012,08,19,18,01,20.80
2012,08,19,18,02,20.80
2012,08,19,18,03,20.80
2012,08,19,18,04,20.80
2012,08,19,18,05,20.80
2012,08,19,18,06,20.80
2012,08,19,18,07,20.80
2012,08,19,18,08,20.80
2012,08,19,18,09,20.80
2012,08,19,18,10,20.80
2012,08,19,18,11,20.80
2012,08,19,18,12,20.80
2012,08,19,18,13,20.80
2012,08,19,18,14,20.80
2012,08,19,18,15,20.80
2012,08,19,18,16,20.90
2012,08,19,18,17,20.90
2012,08,19,18,18,21.00
2012,08,19,18,19,21.00
2012,08,19,18,20,21.00
2012,08,19,18,21,21.00
2012,08,19,18,22,21.10
2012,08,19,18,23,21.10
2012,08,19,18,24,21.20
2012,08,19,18,25,21.30
2012,08,19,18,26,21.30
2012,08,19,18,27,21.40
2012,08,19,18,28,21.40
2012,08,19,18,29,21.40
2012,08,19,18,30,21.30
2012,08,19,18,31,21.30
2012,08,19,18,32,21.30
2012,08,19,18,33,21.30
2012,08,19,18,34,21.20
2012,08,19,18,35,21.20
2012,08,19,18,36,21.20
2012,08,19,18,37,21.20
2012,08,19,18,38,21.20
2012,08,19,18,39,21.20
2012,08,19,18,40,21.20
2012,08,19,18,41,21.20
2012,08,19,18,42,21.10
2012,08,19,18,43,21.10
2012,08,19,18,44,21.10
2012,08,19,18,45,21.10
2012,08,19,18,46,21.10
2012,08,19,18,47,21.10
2012,08,19,18,48,21.00
2012,08,19,18,49,21.00
2012,08,19,18,50,21.00
2012,08,19,18,51,20.90
2012,08,19,18,52,20.90
2012,08,19,18,53,20.90
2012,08,19,18,54,20.90
2012,08,19,18,55,20.90
2012,08,19,18,56,20.90
2012,08,19,18,57,20.90
2012,08,19,18,58,20.90
2012,08,19,18,59,20.90
2012,08,19,19,00,20.90
2012,08,19,19,01,20.90
2012,08,19,19,02,20.90
2012,08,19,19,03,20.90
2012,08,19,19,04,20.80
2012,08,19,19,05,20.80
2012,08,19,19,06,20.80
2012,08,19,19,07,20.80
2012,08,19,19,08,20.70
2012,08,19,19,09,20.70
2012,08,19,19,10,20.60
2012,08,19,19,11,20.60
2012,08,19,19,12,20.50
2012,08,19,19,13,20.40
2012,08,19,19,14,20.40
2012,08,19,19,15,20.30
2012,08,19,19,16,20.30
2012,08,19,19,17,20.30
2012,08,19,19,18,20.20
2012,08,19,19,19,20.20
2012,08,19,19,20,20.10
2012,08,19,19,21,20.10
2012,08,19,19,22,20.00
2012,08,19,19,23,20.00
2012,08,19,19,24,20.00
2012,08,19,19,25,19.90
2012,08,19,19,26,19.90
2012,08,19,19,27,19.90
2012,08,19,19,28,19.80
2012,08,19,19,29,19.80
2012,08,19,19,30,19.80
2012,08,19,19,31,19.70
2012,08,19,19,32,19.70
2012,08,19,19,33,19.60
2012,08,19,19,34,19.60
2012,08,19,19,35,19.50
2012,08,19,19,36,19.40
2012,08,19,19,37,19.40
2012,08,19,19,38,19.30
2012,08,19,19,39,19.30
2012,08,19,19,40,19.30
2012,08,19,19,41,19.20
2012,08,19,19,42,19.20
2012,08,19,19,43,19.20
2012,08,19,19,44,19.10
2012,08,19,19,45,19.10
2012,08,19,19,46,19.10
2012,08,19,19,47,19.00
2012,08,19,19,48,19.00
2012,08,19,19,49,18.90
2012,08,19,19,50,18.90
2012,08,19,19,51,18.90
2012,08,19,19,52,18.80
2012,08,19,19,53,18.80
2012,08,19,19,54,18.80
2012,08,19,19,55,18.70
2012,08,19,19,56,18.70
2012,08,19,19,57,18.70
2012,08,19,19,58,18.60
2012,08,19,19,59,18.60
2012,08,19,20,00,18.60
2012,08,19,20,01,18.60
2012,08,19,20,02,18.60
2012,08,19,20,03,18.60
2012,08,19,20,04,18.60
2012,08,19,20,05,18.60
2012,08,19,20,06,18.60
2012,08,19,20,07,18.60
2012,08,19,20,08,18.60
2012,08,19,20,09,18.60
